• In Hungary
  • List of Countries
  • For 7 days
  • Water Temperature
  • Satellite Maps
  • Weather Map
  • News
  • Weather Widgets
  • user-avatar
    Login

    Hourly Weather Kulganino

    Today, 14 November, Wednesday

    Time Temperature Precipitation Wind Pressure Humidity
    00:00 -9°C° 0 mm 1 mps 730 mmHg 50%
    01:00 -9°C° 0 mm 1 mps 729 mmHg 49%
    02:00 -9°C° 0 mm 1 mps 729 mmHg 49%
    03:00 -9°C° 0 mm 1 mps 729 mmHg 49%
    04:00 -9°C° 0 mm 1 mps 729 mmHg 48%
    05:00 -9°C° 0 mm 1 mps 729 mmHg 48%
    06:00 -9°C° 0 mm 1 mps 729 mmHg 47%
    07:00 -9°C° 0 mm 1 mps 728 mmHg 47%
    08:00 -8°C° 0 mm 1 mps 728 mmHg 44%
    09:00 -7°C° 0 mm 1 mps 728 mmHg 41%
    10:00 -4°C° 0 mm 1 mps 728 mmHg 39%
    11:00 -3°C° 0 mm 1 mps 728 mmHg 37%
    12:00 -2°C° 0 mm 1 mps 728 mmHg 35%
    13:00 -1°C° 0 mm 1 mps 728 mmHg 33%
    14:00 -2°C° 0 mm 1 mps 728 mmHg 37%
    15:00 -3°C° 0 mm 1 mps 728 mmHg 41%
    16:00 -4°C° 0 mm 1 mps 728 mmHg 45%
    17:00 -6°C° 0 mm 1 mps 727 mmHg 45%
    18:00 -7°C° 0 mm 1 mps 727 mmHg 46%
    19:00 -7°C° 0 mm 1 mps 727 mmHg 47%
    20:00 -7°C° 0 mm 1 mps 727 mmHg 47%
    21:00 -8°C° 0 mm 1 mps 727 mmHg 46%
    22:00 -8°C° 0 mm 1 mps 727 mmHg 46%
    23:00 -8°C° 0 mm 1 mps 727 mmHg 46%

    Tomorrow, 15 November, Thursday

    Time Temperature Precipitation Wind Pressure Humidity
    00:00 -8°C° 0 mm 1 mps 727 mmHg 46%
    01:00 -8°C° 0 mm 1 mps 727 mmHg 46%
    02:00 -8°C° 0 mm 1 mps 727 mmHg 45%
    03:00 -8°C° 0 mm 1 mps 727 mmHg 45%
    04:00 -8°C° 0 mm 1 mps 727 mmHg 45%
    05:00 -8°C° 0 mm 1 mps 727 mmHg 45%
    06:00 -8°C° 0 mm 1 mps 727 mmHg 44%
    07:00 -8°C° 0 mm 1 mps 727 mmHg 44%
    08:00 -7°C° 0 mm 1 mps 728 mmHg 42%
    09:00 -6°C° 0 mm 1 mps 728 mmHg 40%
    10:00 -4°C° 0 mm 1 mps 729 mmHg 38%
    11:00 -3°C° 0 mm 1 mps 729 mmHg 36%
    12:00 -2°C° 0 mm 1 mps 729 mmHg 35%
    13:00 -1°C° 0 mm 1 mps 729 mmHg 33%
    14:00 -2°C° 0 mm 1 mps 729 mmHg 37%
    15:00 -3°C° 0 mm 1 mps 729 mmHg 41%
    16:00 -4°C° 0 mm 1 mps 729 mmHg 45%
    17:00 -4°C° 0 mm 1 mps 729 mmHg 46%
    18:00 -6°C° 0 mm 1 mps 729 mmHg 47%
    19:00 -6°C° 0 mm 1 mps 729 mmHg 47%
    20:00 -7°C° 0 mm 1 mps 729 mmHg 47%
    21:00 -7°C° 0 mm 1 mps 729 mmHg 47%
    22:00 -7°C° 0 mm 1 mps 729 mmHg 46%
    23:00 -7°C° 0 mm 1 mps 729 mmHg 46%

    Day after tomorrow, 16 November, Friday

    Time Temperature Precipitation Wind Pressure Humidity
    00:00 -7°C° 0 mm 1 mps 730 mmHg 45%
    01:00 -7°C° 0 mm 1 mps 730 mmHg 44%
    02:00 -7°C° 0 mm 1 mps 730 mmHg 44%
    03:00 -8°C° 0 mm 1 mps 730 mmHg 44%
    04:00 -8°C° 0 mm 1 mps 730 mmHg 43%
    05:00 -8°C° 0 mm 1 mps 730 mmHg 43%
    06:00 -8°C° 0 mm 1 mps 730 mmHg 43%
    07:00 -8°C° 0 mm 1 mps 730 mmHg 43%
    08:00 -7°C° 0 mm 1 mps 730 mmHg 41%
    09:00 -6°C° 0 mm 1 mps 730 mmHg 40%
    10:00 -4°C° 0 mm 1 mps 731 mmHg 38%
    11:00 -3°C° 0 mm 1 mps 731 mmHg 37%
    12:00 -2°C° 0 mm 1 mps 731 mmHg 35%
    13:00 -1°C° 0 mm 1 mps 731 mmHg 34%
    14:00 -2°C° 0 mm 1 mps 730 mmHg 39%
    15:00 -3°C° 0 mm 1 mps 730 mmHg 44%
    16:00 -4°C° 0 mm 1 mps 730 mmHg 49%
    17:00 -4°C° 0 mm 1 mps 729 mmHg 53%
    18:00 -6°C° 0 mm 1 mps 729 mmHg 56%
    19:00 -6°C° 0 mm 1 mps 729 mmHg 59%
    20:00 -7°C° 0 mm 1 mps 729 mmHg 63%
    21:00 -7°C° 0 mm 1 mps 729 mmHg 68%
    22:00 -7°C° 0 mm 1 mps 729 mmHg 73%
    23:00 -7°C° 0 mm 1 mps 728 mmHg 77%

    17 November, Saturday

    Time Temperature Precipitation Wind Pressure Humidity
    00:00 -7°C° 0 mm 1 mps 728 mmHg 81%
    01:00 -7°C° 0 mm 1 mps 728 mmHg 85%
    02:00 -7°C° 0 mm 1 mps 727 mmHg 87%
    03:00 -7°C° 0 mm 1 mps 727 mmHg 88%
    04:00 -7°C° 0 mm 1 mps 726 mmHg 90%
    05:00 -7°C° 0 mm 1 mps 726 mmHg 90%
    06:00 -7°C° 0 mm 1 mps 726 mmHg 90%
    07:00 -8°C° 0 mm 2 mps 725 mmHg 91%
    08:00 -7°C° 0 mm 2 mps 725 mmHg 86%
    09:00 -6°C° 0 mm 2 mps 725 mmHg 81%
    10:00 -6°C° 0 mm 3 mps 724 mmHg 76%
    11:00 -5°C° 0 mm 3 mps 724 mmHg 72%
    12:00 -4°C° 0 mm 3 mps 723 mmHg 68%
    13:00 -3°C° 0 mm 4 mps 723 mmHg 63%
    14:00 -4°C° 0 mm 4 mps 723 mmHg 64%
    15:00 -4°C° 0 mm 4 mps 722 mmHg 65%
    16:00 -5°C° 0 mm 4 mps 721 mmHg 65%
    17:00 -5°C° 0 mm 3 mps 721 mmHg 66%
    18:00 -6°C° 0 mm 3 mps 721 mmHg 66%
    19:00 -7°C° 0 mm 3 mps 720 mmHg 66%
    20:00 -7°C° 0 mm 3 mps 720 mmHg 65%
    21:00 -6°C° 0 mm 2 mps 719 mmHg 65%
    22:00 -6°C° 0 mm 2 mps 719 mmHg 65%
    23:00 -7°C° 0 mm 2 mps 719 mmHg 65%

    18 November, Sunday

    Time Temperature Precipitation Wind Pressure Humidity
    00:00 -7°C° 0 mm 2 mps 719 mmHg 65%
    01:00 -7°C° 0 mm 2 mps 718 mmHg 66%
    02:00 -7°C° 0 mm 2 mps 718 mmHg 66%
    03:00 -7°C° 0 mm 2 mps 718 mmHg 66%
    04:00 -7°C° 0 mm 2 mps 718 mmHg 66%
    05:00 -7°C° 0 mm 2 mps 718 mmHg 67%
    06:00 -6°C° 0 mm 1 mps 717 mmHg 67%
    07:00 -6°C° 0 mm 1 mps 717 mmHg 68%
    08:00 -4°C° 0 mm 1 mps 717 mmHg 65%
    09:00 -4°C° 0 mm 1 mps 718 mmHg 62%
    10:00 -3°C° 0 mm 1 mps 718 mmHg 59%
    11:00 -2°C° 0 mm 1 mps 718 mmHg 55%
    12:00 -1°C° 0 mm 1 mps 718 mmHg 51%
    13:00 0°C° 0 mm 1 mps 718 mmHg 47%
    14:00 -1°C° 0 mm 1 mps 718 mmHg 50%
    15:00 -2°C° 0 mm 1 mps 718 mmHg 53%
    16:00 -3°C° 0 mm 1 mps 718 mmHg 56%
    17:00 -4°C° 0 mm 1 mps 718 mmHg 55%
    18:00 -4°C° 0 mm 1 mps 718 mmHg 54%
    19:00 -5°C° 0 mm 0 mps 719 mmHg 52%
    20:00 -5°C° 0 mm 0 mps 719 mmHg 50%
    21:00 -5°C° 0 mm 0 mps 719 mmHg 49%
    22:00 -6°C° 0 mm 0 mps 719 mmHg 47%
    23:00 -6°C° 0 mm 0 mps 719 mmHg 46%

    19 November, Monday

    Time Temperature Precipitation Wind Pressure Humidity
    00:00 -5°C° 0 mm 0 mps 719 mmHg 44%
    01:00 -5°C° 0 mm 0 mps 719 mmHg 43%
    02:00 -6°C° 0 mm 1 mps 720 mmHg 43%
    03:00 -6°C° 0 mm 1 mps 720 mmHg 43%
    04:00 -6°C° 0 mm 1 mps 720 mmHg 44%
    05:00 -6°C° 0 mm 1 mps 720 mmHg 45%
    06:00 -6°C° 0 mm 0 mps 720 mmHg 46%
    07:00 -6°C° 0 mm 0 mps 720 mmHg 47%
    08:00 -5°C° 0 mm 0 mps 720 mmHg 46%
    09:00 -4°C° 0 mm 0 mps 721 mmHg 46%
    10:00 -2°C° 0 mm 1 mps 721 mmHg 45%
    11:00 -2°C° 0 mm 0 mps 721 mmHg 45%
    12:00 -1°C° 0 mm 0 mps 721 mmHg 46%
    13:00 -1°C° 0 mm 0 mps 721 mmHg 46%
    14:00 -1°C° 0 mm 0 mps 721 mmHg 50%
    15:00 -2°C° 0 mm 0 mps 721 mmHg 54%
    16:00 -3°C° 0 mm 0 mps 720 mmHg 58%
    17:00 -4°C° 0 mm 0 mps 720 mmHg 59%
    18:00 -4°C° 0 mm 0 mps 720 mmHg 61%
    19:00 -4°C° 0 mm 0 mps 720 mmHg 62%
    20:00 -4°C° 0 mm 0 mps 720 mmHg 61%
    21:00 -4°C° 0 mm 0 mps 720 mmHg 61%
    22:00 -4°C° 0 mm 0 mps 719 mmHg 61%
    23:00 -3°C° 0 mm 1 mps 719 mmHg 61%
    Show more